World > North America > United States > Texas

Hourly Stoneburg, TX Regional Weather

Feedback E-mail the Weather

Quick WX

Stoneburg, TX Weather Maps

°F °C°F °C
Stoneburg Weather Map
UTC Time: 7/4/2022, 05:37
Your Time:

Stoneburg, TX Regional Weather

Expires:202207040600;;647987
ASUS44 KFWD 040515
RWRTX 
NORTH TEXAS HOURLY WEATHER ROUNDUP
NATIONAL WEATHER SERVICE FORT WORTH TX
1200 AM CDT MON JUL 04 2022

NOTE: "FAIR" INDICATES FEW OR NO CLOUDS BELOW 12,000 FEET WITH NO
SIGNIFICANT WEATHER AND/OR OBSTRUCTIONS TO VISIBILITY.


TXZ091>094-102>105-117-120-121-131>134-040600-
NORTH CENTRAL TEXAS
  
CITY           SKY/WX    TMP DP  RH WIND       PRES   REMARKS
SHRMAN/DENISON FAIR      82  72  71 E7        30.00R                  
GAINESVILLE    FAIR      77  70  78 CALM      30.00S                  
BOWIE          FAIR      73  71  94 SE3       30.00R                  
BRIDGEPORT     FAIR      72  72 100 CALM      30.00S                  
DECATUR        FAIR      76  71  84 SE5       29.99S                  
DENTON         FAIR      79  73  82 CALM      29.97R                  
MCKINNEY       FAIR      82  70  66 CALM      29.98R                  
BONHAM         FAIR      80  73  78 E5        29.99S                  
GREENVILLE     FAIR      84  69  60 SE9       29.99R                  
ROCKWALL       FAIR      87  67  50 S7        29.98S                  
TERRELL        FAIR      87  67  51 SE8       29.98R HX  90           
WAXAHACHIE     FAIR      87  65  47 S7        29.99S                  
CLEBURNE       CLEAR     88  64  45 S9        29.99S                  
GRANBURY       FAIR      81  68  63 CALM      29.99S                  
$$


SKY/WX - Weather  TMP - Temperature  DP - Dew Point  RH - Humidity
WIND - Wind Direction/Speed PRES - Barometric Pressure VSB - Visibility
WCI - Wind Chill Index E13G22 Wind - East Wind 13 mph/Gusts of 22 mph

Trending Headlines

Stoneburg Radar Loop



Stoneburg Quick Facts


National Two Day Weather Forecast


E-mail the Stoneburg Weather Forecast

Voice your opinion or tell us about page issues...